Location: Stanford
(52.2833°N, 2.4333°W)
Time: 23:29:11
(UTC+00:00)

IRS-1C Rocket - Pass Details

Date: 22 January 2021
Orbit: 801 x 805 km, 99.0° (Epoch: 01 March)

Event Time Altitude Azimuth Distance (km) Brightness Sun altitude
Rises 18:38:08 0° 171° (S) 3,300 7.3 -17.8°
Reaches altitude 10° 18:40:28 10° 174° (S) 2,374 6.6 -18.2°
Maximum altitude 18:45:41 65° 257° (WSW) 879 4.5 -19.0°
Drops below altitude 10° 18:50:56 10° 339° (NNW) 2,390 6.7 -19.7°
Sets 18:53:18 0° 343° (NNW) 3,326 7.4 -20.1°
